Lone Rock, WI

7:56 AM CST on December 07, 2016 (GMT -0600)
Tri-County Regional

Weather History for KLNR - September, 2013

Change the Weather History Date:

Sunday, September 1, 2013

  Actual Average Record
Temperature  
Mean Temperature 74 °F -  
Max Temperature 86 °F 78 °F 95 °F (2011)
Min Temperature 63 °F 53 °F 46 °F (2001)
Cooling Degree Days 9    
Growing Degree Days 24 (Base 50)    
Moisture  
Dew Point 65 °F    
Average Humidity 85    
Maximum Humidity 100    
Minimum Humidity 44    
Precipitation  
Precipitation 0.00 in - - ()
Sea Level Pressure  
Sea Level Pressure 29.78 in    
Wind  
Wind Speed 4 mph (NW)    
Max Wind Speed 15 mph    
Max Gust Speed 21 mph    
Visibility 5 miles    
Events      
Averages and records for this station are not official NWS values.
T = Trace of Precipitation, MM = Missing Value Source: NWS Daily Summary

Daily Weather History Graph

Daily Weather History Graph

Search for Another Location

Airport or City:

Trip Planner

Search our weather history database for the weather conditions in past years. The results will help you decide how hot, cold, wet, or windy it might be!

Date:

Astronomy

Sep. 01, 2013 Rise Set
Actual Time 6:25 AM CDT 7:35 PM CDT
Civil Twilight 5:55 AM CDT 8:04 PM CDT
Nautical Twilight 5:20 AM CDT 8:39 PM CDT
Astronomical Twilight 4:43 AM CDT 9:16 PM CDT
Moon 2:43 AM CDT (9/1) 5:15 PM CDT (9/1)
Length of Visible Light 14h 08m
Length of Day
13h 10m
Waning Crescent, 13% of the Moon is Illuminated
Sep 1
Waning Crescent
Sep 5
New
Sep 12
First Quarter
Sep 19
Full
Sep 26
Last Quarter

Hourly Weather History & Observations

Time (CDT) Temp. Heat Index Dew Point Humidity Pressure Visibility Wind Dir Wind Speed Gust Speed Precip Events Conditions
12:56 AM 64.9 °F - 64.0 °F 97% 29.79 in 6.0 mi East 3.5 mph - N/A   Clear
1:12 AM 64.4 °F - 64.4 °F 100% 29.80 in 5.0 mi ESE 6.9 mph - N/A   Partly Cloudy
1:34 AM 66.2 °F - 66.2 °F 100% 29.78 in 2.5 mi ESE 5.8 mph - N/A   Mostly Cloudy
1:39 AM 66.2 °F - 66.2 °F 100% 29.78 in 0.8 mi Calm Calm - N/A   Mist
1:56 AM 66.0 °F - 64.9 °F 96% 29.74 in 1.2 mi East 3.5 mph - N/A   Overcast
2:04 AM 66.2 °F - 66.2 °F 100% 29.78 in 3.0 mi North 6.9 mph - N/A   Mostly Cloudy
2:19 AM 66.2 °F - 66.2 °F 100% 29.78 in 4.0 mi North 3.5 mph - N/A   Partly Cloudy
2:56 AM 66.9 °F - 64.9 °F 93% 29.76 in 5.0 mi Calm Calm - N/A   Clear
3:56 AM 64.9 °F - 64.0 °F 97% 29.77 in 2.5 mi Calm Calm - N/A   Clear
4:04 AM 64.4 °F - 64.4 °F 100% 29.79 in 4.0 mi Calm Calm - N/A   Clear
4:56 AM 64.0 °F - 63.0 °F 96% 29.78 in 4.0 mi Calm Calm - N/A   Scattered Clouds
5:06 AM 64.4 °F - 64.4 °F 100% 29.80 in 4.0 mi Calm Calm - N/A   Mostly Cloudy
5:39 AM 64.4 °F - 64.4 °F 100% 29.78 in 4.0 mi East 4.6 mph - N/A   Scattered Clouds
5:47 AM 64.4 °F - 64.4 °F 100% 29.79 in 4.0 mi East 3.5 mph - N/A   Scattered Clouds
5:56 AM 66.0 °F - 64.9 °F 96% 29.77 in 4.0 mi Calm Calm - N/A   Scattered Clouds
6:04 AM 66.2 °F - 66.2 °F 100% 29.79 in 5.0 mi Calm Calm - N/A   Mostly Cloudy
6:22 AM 66.2 °F - 64.4 °F 94% 29.79 in 5.0 mi Calm Calm - N/A   Mostly Cloudy
6:56 AM 66.0 °F - 64.0 °F 93% 29.76 in 2.5 mi Calm Calm - N/A   Partly Cloudy
7:12 AM 66.2 °F - 64.4 °F 94% 29.77 in 2.5 mi East 3.5 mph - N/A   Mostly Cloudy
7:37 AM 69.8 °F - 66.2 °F 88% 29.78 in 2.5 mi Calm Calm - N/A   Overcast
7:44 AM 69.8 °F - 66.2 °F 88% 29.79 in 3.0 mi Calm Calm - N/A   Overcast
7:56 AM 69.1 °F - 66.9 °F 93% 29.77 in 3.0 mi Calm Calm - N/A   Overcast
8:56 AM 71.1 °F - 69.1 °F 93% 29.78 in 3.0 mi West 3.5 mph - N/A   Overcast
9:56 AM 73.0 °F - 70.0 °F 90% 29.77 in 3.0 mi WSW 5.8 mph - N/A   Overcast
10:26 AM 73.4 °F - 69.8 °F 88% 29.79 in 3.0 mi West 3.5 mph - N/A   Overcast
10:56 AM 75.0 °F - 71.1 °F 87% 29.75 in 4.0 mi West 5.8 mph - N/A   Overcast
11:19 AM 75.2 °F - 71.6 °F 89% 29.77 in 4.0 mi WNW 6.9 mph - N/A   Haze
11:56 AM 75.9 °F - 70.0 °F 82% 29.74 in 4.0 mi WNW 8.1 mph - N/A   Haze
12:56 PM 81.0 °F 84.9 °F 71.1 °F 72% 29.73 in 6.0 mi NW 4.6 mph - N/A   Haze
1:08 PM 82.4 °F 87.2 °F 71.6 °F 70% 29.75 in 6.0 mi WNW 5.8 mph - N/A   Haze
1:56 PM 82.9 °F 87.5 °F 71.1 °F 67% 29.72 in 8.0 mi NW 12.7 mph 17.3 mph N/A   Scattered Clouds
2:56 PM 84.9 °F 87.6 °F 66.9 °F 55% 29.72 in 10.0 mi NW 15.0 mph - N/A   Clear
3:56 PM 84.9 °F 85.0 °F 61.0 °F 44% 29.73 in 10.0 mi WNW 13.8 mph - N/A   Scattered Clouds
4:56 PM 84.0 °F 84.5 °F 62.1 °F 47% 29.74 in 10.0 mi NW 11.5 mph 20.7 mph N/A   Partly Cloudy
5:56 PM 81.0 °F 81.3 °F 59.0 °F 47% 29.76 in 10.0 mi NW 12.7 mph - N/A   Clear
6:56 PM 78.1 °F - 59.0 °F 52% 29.78 in 10.0 mi NW 10.4 mph - N/A   Clear
7:56 PM 73.0 °F - 59.0 °F 61% 29.80 in 10.0 mi NW 4.6 mph - N/A   Clear
8:56 PM 70.0 °F - 59.0 °F 68% 29.82 in 10.0 mi NW 4.6 mph - N/A   Clear
9:56 PM 68.0 °F - 60.1 °F 76% 29.83 in 10.0 mi WNW 4.6 mph - N/A   Clear
10:56 PM 64.9 °F - 60.1 °F 84% 29.85 in 10.0 mi West 3.5 mph - N/A   Clear
11:56 PM 63.0 °F - 60.1 °F 90% 29.86 in 10.0 mi Calm Calm - N/A   Clear